contact:dominique.lefevre@mio.osupytheas.fr, maurice.libes@osupytheas.fr, didier.mallarino@osupytheas.fr
Project:EMSO http://www.emso-fr.org/EMSO-France
Depth: 2436.0 m
Title:EMSO Ligure Ouest : Data MII capteur AQUADOPP
Date,Latitude,Longitude,X_East,Y_North,Z_Up,Amplitude_X,Amplitude_Y,Amplitude_Z,Batterie,SoundSpeed,Heading,Pitch,Roll,Pressure,TIS,Speed,Direction
, degrees North, degrees East, m.s-1, m.s-1,m.s-1, 1, 1, 1, Volt, m.s-1, degree, degree, degree, dbar, degree_C, m.s-1, degree
2022-09-13T00:04:03,42.805,6.029,0.014,0.0,-0.016,102.0,101.0,101.0,13.4,1505.2,327.6,-0.8,1.8,2471.071,13.29,0.014,90.0
2022-09-13T00:07:03,42.805,6.029,0.031,0.007,0.008,102.0,102.0,100.0,13.3,1505.2,324.3,-0.7,1.8,2471.051,13.29,0.031,77.3
2022-09-13T00:10:03,42.805,6.029,-0.005,0.009,-0.015,101.0,101.0,100.0,13.3,1505.2,328.6,-0.8,1.8,2470.984,13.29,0.01,330.9
2022-09-13T00:13:03,42.805,6.029,-0.003,0.004,-0.019,101.0,103.0,99.0,13.3,1505.2,329.6,-0.8,1.8,2471.034,13.29,0.005,323.1
2022-09-13T00:16:03,42.805,6.029,0.026,-0.021,-0.018,101.0,101.0,100.0,13.4,1505.2,321.4,-0.8,1.8,2471.045,13.29,0.033,128.9
2022-09-13T00:19:03,42.805,6.029,0.014,0.0,0.015,102.0,101.0,101.0,13.4,1505.2,334.2,-0.8,1.8,2471.023,13.29,0.014,90.0
2022-09-13T00:22:03,42.805,6.029,-0.005,0.013,-0.002,102.0,101.0,100.0,13.3,1505.2,318.0,-0.8,1.8,2470.985,13.29,0.013,339.0
2022-09-13T00:25:03,42.805,6.029,-0.004,-0.004,0.0,102.0,102.0,100.0,13.3,1505.2,329.3,-0.7,1.8,2471.022,13.29,0.005,225.0
2022-09-13T00:28:03,42.805,6.029,-0.01,-0.016,-0.006,102.0,101.0,100.0,13.4,1505.2,333.4,-0.8,1.8,2470.981,13.29,0.018,212.0
2022-09-13T00:31:03,42.805,6.029,0.007,0.0,0.005,102.0,102.0,100.0,13.4,1505.2,329.1,-0.8,1.8,2470.96,13.29,0.007,90.0
2022-09-13T00:34:03,42.805,6.029,0.011,-0.014,-0.015,102.0,101.0,100.0,13.4,1505.2,324.7,-0.8,1.8,2470.984,13.29,0.017,141.8
2022-09-13T00:37:03,42.805,6.029,-0.026,0.002,-0.006,101.0,101.0,101.0,13.4,1505.2,319.9,-0.8,1.8,2470.978,13.29,0.026,274.4
2022-09-13T00:40:03,42.805,6.029,-0.016,0.012,-0.002,102.0,102.0,100.0,13.3,1505.2,321.4,-0.8,1.8,2470.97,13.29,0.02,306.9
2022-09-13T00:43:03,42.805,6.029,-0.026,0.015,0.004,101.0,102.0,101.0,13.4,1505.2,318.6,-0.7,1.8,2470.964,13.29,0.03,300.0
2022-09-13T00:46:03,42.805,6.029,-0.007,-0.002,-0.001,101.0,102.0,100.0,13.4,1505.2,334.5,-0.7,1.8,2470.956,13.29,0.007,254.1
2022-09-13T00:49:03,42.805,6.029,0.01,0.007,0.01,101.0,102.0,100.0,13.3,1505.2,330.0,-0.8,1.8,2470.97,13.29,0.012,55.0
2022-09-13T00:52:03,42.805,6.029,0.005,0.016,-0.001,101.0,100.0,102.0,13.3,1505.2,332.2,-0.7,1.8,2470.972,13.29,0.016,17.4
2022-09-13T00:55:03,42.805,6.029,-0.007,-0.009,-0.032,102.0,102.0,100.0,13.3,1505.2,323.6,-0.8,1.8,2470.956,13.29,0.011,217.9
2022-09-13T00:58:03,42.805,6.029,0.003,0.025,0.037,101.0,101.0,100.0,13.4,1505.2,329.4,-0.8,1.8,2470.931,13.29,0.025,6.8
2022-09-13T01:04:03,42.805,6.029,0.007,-0.018,0.007,105.0,105.0,102.0,13.4,1505.2,329.7,-0.8,1.8,2470.957,13.29,0.019,158.8
2022-09-13T01:07:03,42.805,6.029,-0.015,0.023,0.021,101.0,103.0,102.0,13.3,1505.2,333.7,-0.8,1.8,2470.955,13.29,0.027,326.9
2022-09-13T01:10:03,42.805,6.029,0.005,-0.011,-0.009,100.0,104.0,101.0,13.3,1505.2,322.3,-0.8,1.8,2470.953,13.29,0.012,155.6
2022-09-13T01:13:03,42.805,6.029,-0.004,-0.012,-0.003,101.0,101.0,101.0,13.3,1505.2,319.7,-0.7,1.8,2470.94,13.29,0.012,198.4
2022-09-13T01:16:03,42.805,6.029,-0.001,0.019,0.015,101.0,102.0,100.0,13.4,1505.2,329.1,-0.8,1.8,2470.954,13.29,0.019,357.0
2022-09-13T01:19:03,42.805,6.029,0.011,0.006,-0.006,100.0,102.0,100.0,13.4,1505.2,324.6,-0.7,1.8,2470.928,13.29,0.012,61.4
2022-09-13T01:22:03,42.805,6.029,-0.024,-0.002,-0.005,103.0,103.0,100.0,13.3,1505.2,330.4,-0.7,1.8,2470.929,13.29,0.024,265.2
2022-09-13T01:25:03,42.805,6.029,0.012,-0.001,-0.004,100.0,102.0,100.0,13.4,1505.2,321.2,-0.7,1.8,2470.947,13.29,0.012,94.8
2022-09-13T01:28:03,42.805,6.029,-0.007,0.009,0.016,100.0,102.0,101.0,13.3,1505.2,329.6,-0.8,1.8,2470.934,13.29,0.011,322.1
2022-09-13T01:31:03,42.805,6.029,0.0,-0.006,-0.015,102.0,100.0,100.0,13.4,1505.2,318.6,-0.7,1.8,2470.947,13.29,0.006,180.0
2022-09-13T01:34:03,42.805,6.029,0.002,0.012,-0.01,101.0,101.0,100.0,13.3,1505.2,331.6,-0.7,1.8,2470.966,13.29,0.012,9.5
2022-09-13T01:37:03,42.805,6.029,-0.017,0.019,0.025,101.0,102.0,101.0,13.4,1505.2,327.7,-0.8,1.8,2470.923,13.29,0.025,318.2
2022-09-13T01:40:03,42.805,6.029,-0.014,-0.002,-0.008,101.0,101.0,101.0,13.4,1505.2,327.4,-0.8,1.8,2470.945,13.29,0.014,261.9
2022-09-13T01:43:03,42.805,6.029,-0.036,0.009,0.006,101.0,101.0,101.0,13.3,1505.2,322.8,-0.8,1.8,2470.961,13.3,0.037,284.0
2022-09-13T01:46:03,42.805,6.029,-0.013,0.011,0.012,102.0,101.0,101.0,13.3,1505.2,318.7,-0.8,1.8,2470.922,13.29,0.017,310.2
2022-09-13T01:49:03,42.805,6.029,-0.013,0.007,0.015,102.0,100.0,101.0,13.4,1505.2,318.2,-0.7,1.8,2470.906,13.29,0.014,298.3
2022-09-13T01:52:03,42.805,6.029,-0.007,-0.003,0.01,103.0,102.0,100.0,13.3,1505.2,319.3,-0.7,1.8,2470.91,13.29,0.007,246.8
2022-09-13T01:55:03,42.805,6.029,-0.004,-0.004,0.018,101.0,102.0,100.0,13.3,1505.2,328.4,-0.7,1.8,2470.918,13.29,0.005,225.0
2022-09-13T01:58:03,42.805,6.029,-0.015,0.007,-0.033,103.0,102.0,101.0,13.3,1505.2,326.4,-0.8,1.9,2470.925,13.3,0.016,295.0
2022-09-13T02:04:03,42.805,6.029,-0.037,0.014,-0.028,100.0,102.0,101.0,13.4,1505.2,317.8,-0.8,1.8,2470.942,13.29,0.039,290.7
2022-09-13T02:07:03,42.805,6.029,-0.005,-0.002,-0.018,101.0,101.0,101.0,13.4,1505.2,333.1,-0.8,1.8,2470.943,13.29,0.005,248.2
2022-09-13T02:10:03,42.805,6.029,-0.007,-0.004,-0.032,101.0,102.0,101.0,13.3,1505.2,326.8,-0.7,1.8,2470.925,13.29,0.008,240.3
2022-09-13T02:13:03,42.805,6.029,-0.018,0.022,0.013,101.0,102.0,100.0,13.3,1505.2,317.4,-0.8,1.8,2470.958,13.29,0.028,320.7
2022-09-13T02:16:03,42.805,6.029,-0.004,0.009,-0.005,99.0,103.0,102.0,13.3,1505.2,318.6,-0.8,1.8,2470.94,13.29,0.009,336.0
2022-09-13T02:19:03,42.805,6.029,-0.002,0.001,0.0,101.0,102.0,101.0,13.4,1505.2,330.8,-0.7,1.8,2470.926,13.29,0.002,296.6
2022-09-13T02:22:03,42.805,6.029,-0.014,0.007,-0.018,101.0,103.0,101.0,13.3,1505.2,330.7,-0.8,1.8,2470.925,13.29,0.015,296.6
2022-09-13T02:25:03,42.805,6.029,-0.009,0.006,0.01,103.0,103.0,99.0,13.4,1505.2,326.3,-0.7,1.8,2470.94,13.29,0.01,303.7
2022-09-13T02:28:03,42.805,6.029,0.026,-0.001,-0.007,102.0,104.0,100.0,13.4,1505.2,324.2,-0.7,1.8,2470.955,13.29,0.026,92.2
2022-09-13T02:31:03,42.805,6.029,0.013,0.02,0.031,102.0,102.0,100.0,13.3,1505.2,326.4,-0.7,1.8,2470.957,13.29,0.023,33.0
2022-09-13T02:34:03,42.805,6.029,0.016,-0.015,0.003,102.0,102.0,100.0,13.3,1505.2,331.2,-0.8,1.9,2470.883,13.29,0.021,133.1
2022-09-13T02:37:03,42.805,6.029,-0.012,0.01,-0.011,101.0,102.0,100.0,13.4,1505.2,331.5,-0.8,1.8,2470.908,13.29,0.015,309.8
2022-09-13T02:40:03,42.805,6.029,-0.007,0.009,0.005,102.0,102.0,100.0,13.3,1505.2,332.2,-0.8,1.8,2470.897,13.29,0.011,322.1
2022-09-13T02:43:03,42.805,6.029,-0.019,-0.004,-0.025,101.0,103.0,101.0,13.4,1505.2,323.0,-0.8,1.8,2470.911,13.29,0.019,258.1
2022-09-13T02:46:03,42.805,6.029,-0.017,-0.001,0.007,101.0,102.0,101.0,13.3,1505.2,327.9,-0.7,1.8,2470.893,13.29,0.017,266.6
2022-09-13T02:49:03,42.805,6.029,0.01,0.032,0.021,102.0,101.0,100.0,13.4,1505.2,329.2,-0.7,1.8,2470.916,13.29,0.033,17.4
2022-09-13T02:52:03,42.805,6.029,-0.003,0.006,-0.026,102.0,101.0,101.0,13.3,1505.2,323.6,-0.7,1.8,2470.916,13.29,0.006,333.4
2022-09-13T02:55:03,42.805,6.029,-0.021,-0.005,-0.006,101.0,101.0,102.0,13.3,1505.2,320.4,-0.8,1.8,2470.87,13.29,0.021,256.6
2022-09-13T02:58:03,42.805,6.029,0.0,0.007,-0.024,102.0,102.0,101.0,13.4,1505.2,317.4,-0.7,1.8,2470.861,13.29,0.007,0.0
2022-09-13T03:04:03,42.805,6.029,-0.017,0.015,0.018,101.0,103.0,101.0,13.4,1505.2,323.7,-0.7,1.8,2470.936,13.29,0.022,311.4
2022-09-13T03:07:03,42.805,6.029,-0.013,-0.017,-0.036,101.0,101.0,100.0,13.4,1505.2,322.6,-0.7,1.8,2470.89,13.29,0.021,217.4
2022-09-13T03:10:03,42.805,6.029,-0.003,-0.003,0.0,102.0,102.0,101.0,13.3,1505.2,326.1,-0.7,1.8,2470.904,13.29,0.004,225.0
2022-09-13T03:13:03,42.805,6.029,-0.005,-0.005,-0.012,102.0,101.0,101.0,13.3,1505.2,329.2,-0.8,1.8,2470.86,13.29,0.007,225.0
2022-09-13T03:16:03,42.805,6.029,-0.007,0.013,0.013,100.0,101.0,102.0,13.4,1505.2,326.9,-0.8,1.8,2470.885,13.29,0.014,331.7
2022-09-13T03:19:03,42.805,6.029,-0.022,0.005,-0.01,103.0,100.0,102.0,13.3,1505.2,334.0,-0.8,1.8,2470.876,13.29,0.022,282.8
2022-09-13T03:22:03,42.805,6.029,-0.031,0.011,-0.003,100.0,102.0,100.0,13.4,1505.2,331.6,-0.7,1.8,2470.874,13.29,0.032,289.5
2022-09-13T03:25:03,42.805,6.029,-0.012,-0.009,-0.016,102.0,102.0,101.0,13.4,1505.2,325.4,-0.8,1.8,2470.891,13.29,0.015,233.1
2022-09-13T03:28:03,42.805,6.029,-0.008,-0.006,0.006,101.0,101.0,101.0,13.4,1505.2,318.8,-0.8,1.8,2470.877,13.29,0.01,233.1
2022-09-13T03:31:03,42.805,6.029,0.019,0.014,0.022,102.0,102.0,101.0,13.4,1505.2,330.0,-0.8,1.8,2470.868,13.29,0.023,53.6
2022-09-13T03:34:03,42.805,6.029,-0.019,-0.006,-0.038,101.0,102.0,101.0,13.4,1505.2,330.0,-0.8,1.8,2470.856,13.29,0.019,252.5
2022-09-13T03:37:03,42.805,6.029,-0.006,0.01,0.0,102.0,101.0,102.0,13.3,1505.2,333.7,-0.8,1.8,2470.844,13.29,0.011,329.0
2022-09-13T03:40:03,42.805,6.029,-0.005,-0.002,-0.01,101.0,101.0,102.0,13.4,1505.2,328.0,-0.7,1.8,2470.872,13.29,0.005,248.2
2022-09-13T03:43:03,42.805,6.029,-0.008,0.017,-0.009,101.0,102.0,102.0,13.4,1505.2,333.4,-0.7,1.8,2470.84,13.29,0.018,334.8
2022-09-13T03:46:03,42.805,6.029,0.004,0.011,0.01,101.0,101.0,101.0,13.4,1505.2,328.0,-0.7,1.8,2470.893,13.29,0.011,20.0
2022-09-13T03:49:03,42.805,6.029,-0.015,-0.013,0.0,100.0,102.0,101.0,13.4,1505.2,329.0,-0.8,1.8,2470.863,13.29,0.019,229.1
2022-09-13T03:52:03,42.805,6.029,0.001,-0.001,-0.001,101.0,102.0,101.0,13.4,1505.2,327.3,-0.7,1.8,2470.854,13.29,0.001,135.0
2022-09-13T03:55:03,42.805,6.029,-0.004,0.005,0.015,102.0,101.0,101.0,13.3,1505.2,330.0,-0.8,1.8,2470.858,13.29,0.006,321.3
2022-09-13T03:58:03,42.805,6.029,-0.008,0.002,0.0,100.0,102.0,101.0,13.4,1505.2,319.2,-0.8,1.8,2470.853,13.29,0.008,284.0
2022-09-13T04:04:03,42.805,6.029,-0.02,0.013,0.0,101.0,102.0,101.0,13.4,1505.2,332.6,-0.8,1.8,2470.896,13.29,0.023,303.0
2022-09-13T04:07:03,42.805,6.029,-0.002,0.006,-0.025,102.0,103.0,100.0,13.4,1505.2,332.0,-0.8,1.8,2470.872,13.29,0.006,341.6
2022-09-13T04:10:03,42.805,6.029,-0.003,-0.015,-0.042,101.0,102.0,100.0,13.4,1505.2,322.7,-0.8,1.8,2470.923,13.29,0.015,191.3
2022-09-13T04:13:03,42.805,6.029,-0.001,0.022,0.018,102.0,102.0,100.0,13.3,1505.2,318.6,-0.8,1.8,2470.915,13.29,0.022,357.4
2022-09-13T04:16:03,42.805,6.029,0.01,0.004,-0.007,101.0,102.0,101.0,13.4,1505.2,323.5,-0.8,1.8,2470.901,13.29,0.01,68.2
2022-09-13T04:19:03,42.805,6.029,-0.011,-0.009,-0.01,101.0,104.0,101.0,13.4,1505.2,317.4,-0.8,1.8,2470.927,13.29,0.014,230.7
2022-09-13T04:22:03,42.805,6.029,-0.007,0.008,0.012,102.0,102.0,101.0,13.4,1505.2,331.5,-0.7,1.8,2470.895,13.29,0.01,318.8
2022-09-13T04:25:03,42.805,6.029,-0.011,0.002,0.002,102.0,102.0,100.0,13.3,1505.2,328.2,-0.8,1.8,2470.889,13.29,0.011,280.3
2022-09-13T04:28:03,42.805,6.029,-0.014,0.009,0.025,102.0,102.0,100.0,13.4,1505.2,330.7,-0.7,1.8,2470.904,13.29,0.016,302.7
2022-09-13T04:31:03,42.805,6.029,-0.022,-0.001,-0.023,101.0,101.0,102.0,13.4,1505.2,318.9,-0.7,1.8,2470.894,13.29,0.022,267.4
2022-09-13T04:34:03,42.805,6.029,-0.003,-0.021,-0.027,101.0,101.0,101.0,13.3,1505.2,328.2,-0.8,1.8,2470.915,13.29,0.021,188.1
2022-09-13T04:37:03,42.805,6.029,-0.002,0.001,-0.006,101.0,100.0,101.0,13.4,1505.2,324.6,-0.8,1.8,2470.941,13.29,0.002,296.6
2022-09-13T04:40:03,42.805,6.029,-0.023,0.007,0.007,101.0,101.0,101.0,13.4,1505.2,325.1,-0.8,1.8,2470.905,13.29,0.024,286.9
2022-09-13T04:43:03,42.805,6.029,-0.006,0.011,-0.013,103.0,102.0,101.0,13.3,1505.2,328.1,-0.8,1.8,2470.887,13.29,0.012,331.4
2022-09-13T04:46:03,42.805,6.029,-0.018,0.027,0.034,102.0,101.0,100.0,13.4,1505.2,334.0,-0.8,1.8,2470.917,13.29,0.032,326.3
2022-09-13T04:49:03,42.805,6.029,-0.01,0.0,-0.022,101.0,101.0,102.0,13.4,1505.2,324.3,-0.7,1.8,2470.88,13.29,0.01,270.0
2022-09-13T04:52:03,42.805,6.029,-0.039,-0.001,-0.027,102.0,101.0,100.0,13.4,1505.2,331.9,-0.8,1.8,2470.915,13.29,0.039,268.5
2022-09-13T04:55:03,42.805,6.029,-0.01,0.001,-0.005,101.0,102.0,100.0,13.4,1505.2,318.3,-0.7,1.8,2470.911,13.29,0.01,275.7
2022-09-13T04:58:03,42.805,6.029,-0.023,0.01,0.015,102.0,100.0,101.0,13.4,1505.2,328.8,-0.8,1.8,2470.918,13.29,0.025,293.5
2022-09-13T05:04:03,42.805,6.029,-0.016,0.022,-0.006,110.0,101.0,101.0,13.4,1505.2,322.4,-0.8,1.8,2470.974,13.29,0.027,324.0
2022-09-13T05:07:03,42.805,6.029,-0.028,0.018,-0.014,102.0,101.0,100.0,13.4,1505.2,325.0,-0.8,1.8,2470.936,13.29,0.033,302.7
2022-09-13T05:10:03,42.805,6.029,-0.048,0.008,0.003,101.0,101.0,101.0,13.4,1505.2,318.5,-0.7,1.8,2470.976,13.29,0.048,279.5
2022-09-13T05:13:03,42.805,6.029,0.005,-0.011,-0.013,100.0,102.0,101.0,13.4,1505.2,322.5,-0.8,1.8,2470.967,13.29,0.012,155.6
2022-09-13T05:16:03,42.805,6.029,-0.019,-0.005,-0.029,101.0,100.0,101.0,13.4,1505.2,318.2,-0.7,1.8,2470.96,13.29,0.019,255.3
2022-09-13T05:19:03,42.805,6.029,0.006,-0.001,0.0,101.0,101.0,101.0,13.3,1505.2,327.9,-0.8,1.8,2470.982,13.29,0.006,99.5
2022-09-13T05:22:03,42.805,6.029,0.007,0.001,0.002,101.0,101.0,100.0,13.4,1505.2,322.8,-0.7,1.8,2470.931,13.29,0.007,81.9
2022-09-13T05:25:03,42.805,6.029,0.0,-0.001,-0.021,101.0,101.0,101.0,13.4,1505.2,327.1,-0.8,1.8,2470.973,13.29,0.001,180.0
2022-09-13T05:28:03,42.805,6.029,0.008,-0.009,0.003,102.0,101.0,101.0,13.4,1505.2,320.8,-0.8,1.8,2470.984,13.29,0.012,138.4
2022-09-13T05:31:03,42.805,6.029,-0.01,0.005,-0.006,100.0,102.0,101.0,13.3,1505.2,329.4,-0.8,1.8,2470.912,13.29,0.011,296.6
2022-09-13T05:34:03,42.805,6.029,-0.033,0.021,0.019,102.0,102.0,101.0,13.4,1505.2,318.5,-0.8,1.9,2471.001,13.29,0.039,302.5
2022-09-13T05:37:03,42.805,6.029,0.006,0.01,0.016,102.0,100.0,99.0,13.4,1505.2,323.1,-0.7,1.8,2470.957,13.29,0.011,31.0
2022-09-13T05:40:03,42.805,6.029,-0.005,0.001,0.027,102.0,102.0,101.0,13.4,1505.2,319.3,-0.7,1.8,2470.955,13.29,0.005,281.3
2022-09-13T05:43:03,42.805,6.029,-0.028,0.006,0.005,101.0,101.0,100.0,13.3,1505.2,317.8,-0.8,1.8,2470.952,13.29,0.028,282.1
2022-09-13T05:46:03,42.805,6.029,-0.021,0.006,-0.018,101.0,103.0,101.0,13.4,1505.2,323.3,-0.8,1.8,2470.934,13.29,0.021,285.9
2022-09-13T05:49:03,42.805,6.029,-0.013,-0.005,-0.014,102.0,101.0,101.0,13.4,1505.2,328.9,-0.8,1.8,2470.999,13.29,0.013,249.0
